Location: La Silve
(44.2414°N, 5.8889°E)
Time: 09:31:59
(UTC+00:00)

COSMO-SKYMED 1 - Pass Details

Date: 01 December 2020
Orbit: 621 x 623 km, 97.9° (Epoch: 26 January)

Event Time Altitude Azimuth Distance (km) Brightness Sun altitude
Exits shadow 17:23:43 13° 27° (NNE) 1,790 4.5 -14.8°
Maximum altitude 17:27:23 47° 99° (E) 824 2.8 -15.4°
Drops below altitude 10° 17:31:34 10° 174° (S) 1,987 5.3 -16.1°
Sets 17:33:48 0° 180° (S) 2,888 6.2 -16.5°
